Time,TemperatureF,DewpointF,PressureIn,WindDirection,WindDirectionDegrees,WindSpeedMPH,WindSpeedGustMPH,Humidity,HourlyPrecipIn,Conditions,Clouds,dailyrainin,SoftwareType,DateUTC
2013-01-21 00:00:00,32.9,13.2,30.02,WNW,293,3.4,6.3,44,0.00,,,0.00,WUHU216HW,2013-01-21 05:00:00,
2013-01-21 00:01:00,32.9,13.2,30.02,NNW,338,1.8,6.3,44,0.00,,,0.00,WUHU216HW,2013-01-21 05:01:00,
2013-01-21 00:03:00,32.9,13.2,30.02,NW,315,0.9,3.6,44,0.00,,,0.00,WUHU216HW,2013-01-21 05:03:00,
2013-01-21 00:08:00,32.8,12.6,30.01,WSW,248,2.5,5.8,43,0.00,,,0.00,WUHU216HW,2013-01-21 05:08:00,
2013-01-21 00:13:00,32.6,12.4,30.01,North,0,4.7,5.8,43,0.00,,,0.00,WUHU216HW,2013-01-21 05:13:00,
2013-01-21 00:22:00,32.4,12.2,30.01,NW,315,2.5,5.8,43,0.00,,,0.00,WUHU216HW,2013-01-21 05:22:00,
2013-01-21 00:27:00,32.2,12.6,30.01,North,0,1.1,4.0,44,0.00,,,0.00,WUHU216HW,2013-01-21 05:27:00,
2013-01-21 00:32:00,32.0,12.0,30.01,West,270,3.4,5.4,43,0.00,,,0.00,WUHU216HW,2013-01-21 05:32:00,
2013-01-21 00:37:00,32.0,12.0,30.02,NNW,338,1.8,6.0,43,0.00,,,0.00,WUHU216HW,2013-01-21 05:37:00,
2013-01-21 00:42:00,32.0,12.4,30.02,SSW,203,0.7,6.0,44,0.00,,,0.00,WUHU216HW,2013-01-21 05:42:00,
2013-01-21 00:47:00,31.9,11.8,30.02,SW,225,0.4,3.1,43,0.00,,,0.00,WUHU216HW,2013-01-21 05:47:00,
2013-01-21 00:52:00,31.9,11.8,30.02,WNW,293,2.7,3.4,43,0.00,,,0.00,WUHU216HW,2013-01-21 05:52:00,
2013-01-21 00:57:00,31.7,11.6,30.02,North,0,2.0,3.4,43,0.00,,,0.00,WUHU216HW,2013-01-21 05:57:00,
2013-01-21 01:02:00,31.5,12.0,30.02,NNW,338,1.6,4.0,44,0.00,,,0.00,WUHU216HW,2013-01-21 06:02:00,
2013-01-21 01:07:00,31.7,12.2,30.02,NNW,338,1.3,4.0,44,0.00,,,0.00,WUHU216HW,2013-01-21 06:07:00,
2013-01-21 01:17:00,31.5,12.0,30.02,NNW,338,2.0,4.5,44,0.00,,,0.00,WUHU216HW,2013-01-21 06:17:00,
2013-01-21 01:22:00,31.3,11.4,30.03,NW,315,0.4,6.7,43,0.00,,,0.00,WUHU216HW,2013-01-21 06:22:00,
2013-01-21 01:27:00,31.3,11.4,30.03,West,270,0.4,6.7,43,0.00,,,0.00,WUHU216HW,2013-01-21 06:27:00,
2013-01-21 01:32:00,31.1,11.2,30.03,North,0,3.4,4.9,43,0.00,,,0.00,WUHU216HW,2013-01-21 06:32:00,
2013-01-21 01:37:00,31.1,11.2,30.03,West,270,3.4,4.9,43,0.00,,,0.00,WUHU216HW,2013-01-21 06:37:00,
2013-01-21 01:42:00,31.0,11.5,30.03,SW,225,2.7,6.3,44,0.00,,,0.00,WUHU216HW,2013-01-21 06:42:00,
2013-01-21 01:47:00,31.0,11.5,30.03,NNW,338,3.1,6.3,44,0.00,,,0.00,WUHU216HW,2013-01-21 06:47:00,
2013-01-21 01:52:00,31.0,11.5,30.03,WSW,248,1.6,3.8,44,0.00,,,0.00,WUHU216HW,2013-01-21 06:52:00,
2013-01-21 01:57:00,30.8,11.4,30.04,WSW,248,1.3,3.4,44,0.00,,,0.00,WUHU216HW,2013-01-21 06:57:00,
2013-01-21 02:02:00,30.8,11.4,30.04,NNW,338,4.5,5.4,44,0.00,,,0.00,WUHU216HW,2013-01-21 07:02:00,
2013-01-21 02:08:00,30.6,11.2,30.04,NW,315,1.3,5.6,44,0.00,,,0.00,WUHU216HW,2013-01-21 07:08:00,
2013-01-21 02:13:00,30.6,11.2,30.04,North,0,1.3,5.6,44,0.00,,,0.00,WUHU216HW,2013-01-21 07:13:00,
2013-01-21 02:18:00,30.6,11.2,30.04,NNW,338,1.3,5.4,44,0.00,,,0.00,WUHU216HW,2013-01-21 07:18:00,
2013-01-21 02:23:00,30.4,10.5,30.04,West,270,4.0,5.4,43,0.00,,,0.00,WUHU216HW,2013-01-21 07:23:00,
2013-01-21 02:28:00,30.4,11.0,30.05,NW,315,4.3,5.1,44,0.00,,,0.00,WUHU216HW,2013-01-21 07:28:00,
2013-01-21 02:33:00,30.4,11.0,30.04,North,0,2.2,4.3,44,0.00,,,0.00,WUHU216HW,2013-01-21 07:33:00,
2013-01-21 02:38:00,30.4,11.0,30.05,NW,315,1.6,3.1,44,0.00,,,0.00,WUHU216HW,2013-01-21 07:38:00,
2013-01-21 02:43:00,30.2,10.8,30.05,NNW,338,2.2,2.5,44,0.00,,,0.00,WUHU216HW,2013-01-21 07:43:00,
2013-01-21 02:48:00,30.2,10.8,30.05,NW,315,1.1,2.7,44,0.00,,,0.00,WUHU216HW,2013-01-21 07:48:00,
2013-01-21 02:53:00,30.2,11.3,30.05,WNW,293,2.5,4.0,45,0.00,,,0.00,WUHU216HW,2013-01-21 07:53:00,
2013-01-21 02:58:00,30.1,10.7,30.05,NNE,23,1.3,4.0,44,0.00,,,0.00,WUHU216HW,2013-01-21 07:58:00,
2013-01-21 03:03:00,30.1,11.2,30.05,NW,315,3.6,3.6,45,0.00,,,0.00,WUHU216HW,2013-01-21 08:03:00,
2013-01-21 03:08:00,30.1,10.7,30.05,WSW,248,0.2,3.6,44,0.00,,,0.00,WUHU216HW,2013-01-21 08:08:00,
2013-01-21 03:13:00,30.1,11.2,30.05,West,270,0.2,2.5,45,0.00,,,0.00,WUHU216HW,2013-01-21 08:13:00,
2013-01-21 03:18:00,30.1,11.2,30.05,NW,315,1.6,4.0,45,0.00,,,0.00,WUHU216HW,2013-01-21 08:18:00,
2013-01-21 03:23:00,29.9,11.0,30.05,NNW,338,0.4,4.0,45,0.00,,,0.00,WUHU216HW,2013-01-21 08:23:00,
2013-01-21 03:28:00,29.9,10.5,30.05,North,0,1.8,2.5,44,0.00,,,0.00,WUHU216HW,2013-01-21 08:28:00,
2013-01-21 03:33:00,29.9,11.0,30.05,NNW,338,1.8,2.0,45,0.00,,,0.00,WUHU216HW,2013-01-21 08:33:00,
2013-01-21 03:38:00,29.9,11.0,30.05,NE,45,0.0,1.8,45,0.00,,,0.00,WUHU216HW,2013-01-21 08:38:00,
2013-01-21 03:43:00,29.7,10.9,30.05,NW,315,0.4,2.2,45,0.00,,,0.00,WUHU216HW,2013-01-21 08:43:00,
2013-01-21 03:48:00,29.7,10.9,30.05,West,270,0.2,2.2,45,0.00,,,0.00,WUHU216HW,2013-01-21 08:48:00,
2013-01-21 03:53:00,29.7,10.9,30.05,WSW,248,0.9,1.8,45,0.00,,,0.00,WUHU216HW,2013-01-21 08:53:00,
2013-01-21 03:58:00,29.7,10.9,30.05,NNW,338,1.1,2.7,45,0.00,,,0.00,WUHU216HW,2013-01-21 08:58:00,
2013-01-21 04:03:00,29.5,10.7,30.05,NW,315,1.1,2.7,45,0.00,,,0.00,WUHU216HW,2013-01-21 09:03:00,
2013-01-21 04:08:00,29.7,10.9,30.05,WNW,293,0.0,1.6,45,0.00,,,0.00,WUHU216HW,2013-01-21 09:08:00,
2013-01-21 04:13:00,29.5,10.7,30.05,NW,315,1.1,1.8,45,0.00,,,0.00,WUHU216HW,2013-01-21 09:13:00,
2013-01-21 04:18:00,29.5,10.7,30.04,WSW,248,0.9,2.7,45,0.00,,,0.00,WUHU216HW,2013-01-21 09:18:00,
2013-01-21 04:23:00,29.5,11.2,30.04,North,0,0.4,2.7,46,0.00,,,0.00,WUHU216HW,2013-01-21 09:23:00,
2013-01-21 04:28:00,29.5,10.7,30.04,NW,315,0.4,3.1,45,0.00,,,0.00,WUHU216HW,2013-01-21 09:28:00,
2013-01-21 04:33:00,29.5,11.2,30.04,WSW,248,0.4,3.1,46,0.00,,,0.00,WUHU216HW,2013-01-21 09:33:00,
2013-01-21 04:38:00,29.3,11.1,30.05,West,270,0.0,2.2,46,0.00,,,0.00,WUHU216HW,2013-01-21 09:38:00,
2013-01-21 04:43:00,29.5,11.2,30.05,North,0,0.0,2.2,46,0.00,,,0.00,WUHU216HW,2013-01-21 09:43:00,
2013-01-21 04:48:00,29.5,11.2,30.05,WNW,293,0.2,0.9,46,0.00,,,0.00,WUHU216HW,2013-01-21 09:48:00,
2013-01-21 04:53:00,29.5,11.2,30.05,West,270,0.0,0.9,46,0.00,,,0.00,WUHU216HW,2013-01-21 09:53:00,
2013-01-21 04:58:00,29.5,11.2,30.05,SW,225,0.7,1.1,46,0.00,,,0.00,WUHU216HW,2013-01-21 09:58:00,
2013-01-21 05:03:00,29.3,11.1,30.05,WNW,293,0.0,1.1,46,0.00,,,0.00,WUHU216HW,2013-01-21 10:03:00,
2013-01-21 05:08:00,29.3,11.1,30.05,NNE,23,0.7,1.6,46,0.00,,,0.00,WUHU216HW,2013-01-21 10:08:00,
2013-01-21 05:13:00,29.2,11.3,30.05,NW,315,0.4,1.6,47,0.00,,,0.00,WUHU216HW,2013-01-21 10:13:00,
2013-01-21 05:18:00,29.3,11.5,30.05,SSW,203,0.0,2.0,47,0.00,,,0.00,WUHU216HW,2013-01-21 10:18:00,
2013-01-21 05:23:00,29.3,11.5,30.05,NNW,338,0.0,2.0,47,0.00,,,0.00,WUHU216HW,2013-01-21 10:23:00,
2013-01-21 05:28:00,29.3,11.5,30.05,NNW,338,0.0,0.0,47,0.00,,,0.00,WUHU216HW,2013-01-21 10:28:00,
2013-01-21 05:33:00,29.3,11.5,30.05,NNW,338,0.0,0.0,47,0.00,,,0.00,WUHU216HW,2013-01-21 10:33:00,
2013-01-21 05:38:00,29.3,11.5,30.05,NNW,338,0.0,0.0,47,0.00,,,0.00,WUHU216HW,2013-01-21 10:38:00,
2013-01-21 05:43:00,29.2,11.3,30.05,NNW,338,0.0,0.0,47,0.00,,,0.00,WUHU216HW,2013-01-21 10:43:00,
2013-01-21 05:48:00,29.2,11.3,30.05,NNW,338,0.0,0.0,47,0.00,,,0.00,WUHU216HW,2013-01-21 10:48:00,
2013-01-21 05:53:00,29.2,11.9,30.05,NNW,338,0.0,0.0,48,0.00,,,0.00,WUHU216HW,2013-01-21 10:53:00,
2013-01-21 05:58:00,29.0,11.7,30.05,North,0,0.0,0.4,48,0.00,,,0.00,WUHU216HW,2013-01-21 10:58:00,
2013-01-21 06:03:00,29.0,11.7,30.05,NNW,338,0.0,0.4,48,0.00,,,0.00,WUHU216HW,2013-01-21 11:03:00,
2013-01-21 06:08:00,29.0,11.7,30.05,West,270,0.0,0.0,48,0.00,,,0.00,WUHU216HW,2013-01-21 11:08:00,
2013-01-21 06:13:00,28.8,11.5,30.06,NNE,23,0.0,0.2,48,0.00,,,0.00,WUHU216HW,2013-01-21 11:13:00,
2013-01-21 06:18:00,28.8,11.5,30.05,NNE,23,0.0,0.2,48,0.00,,,0.00,WUHU216HW,2013-01-21 11:18:00,
2013-01-21 06:23:00,28.6,11.9,30.05,NNE,23,0.0,0.0,49,0.00,,,0.00,WUHU216HW,2013-01-21 11:23:00,
2013-01-21 06:28:00,28.6,11.9,30.06,NNE,23,0.0,0.0,49,0.00,,,0.00,WUHU216HW,2013-01-21 11:28:00,
2013-01-21 06:33:00,28.4,11.7,30.06,NNE,23,0.2,0.2,49,0.00,,,0.00,WUHU216HW,2013-01-21 11:33:00,
2013-01-21 06:38:00,28.4,11.3,30.06,NNE,23,0.0,0.2,48,0.00,,,0.00,WUHU216HW,2013-01-21 11:38:00,
2013-01-21 06:43:00,28.4,11.7,30.06,NNE,23,0.0,0.2,49,0.00,,,0.00,WUHU216HW,2013-01-21 11:43:00,
2013-01-21 06:48:00,28.4,11.7,30.06,NNE,23,0.0,0.0,49,0.00,,,0.00,WUHU216HW,2013-01-21 11:48:00,
2013-01-21 06:53:00,28.3,11.5,30.05,NNE,23,0.0,0.0,49,0.00,,,0.00,WUHU216HW,2013-01-21 11:53:00,
2013-01-21 06:58:00,28.3,12.1,30.06,NNE,23,0.0,0.0,50,0.00,,,0.00,WUHU216HW,2013-01-21 11:58:00,
2013-01-21 07:03:00,28.1,11.9,30.06,NNE,23,0.0,0.0,50,0.00,,,0.00,WUHU216HW,2013-01-21 12:03:00,
2013-01-21 07:08:00,28.1,11.9,30.06,NNE,23,0.0,0.0,50,0.00,,,0.00,WUHU216HW,2013-01-21 12:08:00,
2013-01-21 07:13:00,27.9,11.7,30.06,NNE,23,0.0,0.0,50,0.00,,,0.00,WUHU216HW,2013-01-21 12:13:00,
2013-01-21 07:18:00,27.9,12.2,30.06,NNE,23,0.0,0.0,51,0.00,,,0.00,WUHU216HW,2013-01-21 12:18:00,
2013-01-21 07:23:00,27.9,12.2,30.06,NNE,23,0.0,0.0,51,0.00,,,0.00,WUHU216HW,2013-01-21 12:23:00,
2013-01-21 07:28:00,27.9,12.2,30.05,NNE,23,0.0,0.0,51,0.00,,,0.00,WUHU216HW,2013-01-21 12:28:00,
2013-01-21 07:33:00,27.7,12.0,30.06,NNE,23,0.0,0.0,51,0.00,,,0.00,WUHU216HW,2013-01-21 12:33:00,
2013-01-21 07:38:00,27.7,12.3,30.06,NNE,23,0.0,0.0,52,0.00,,,0.00,WUHU216HW,2013-01-21 12:38:00,
2013-01-21 07:43:00,27.7,12.3,30.06,NNE,23,0.0,0.0,52,0.00,,,0.00,WUHU216HW,2013-01-21 12:43:00,
2013-01-21 07:48:00,27.9,12.5,30.06,NNE,23,0.0,0.0,52,0.00,,,0.00,WUHU216HW,2013-01-21 12:48:00,
2013-01-21 07:53:00,27.9,12.5,30.06,NNE,23,0.0,0.0,52,0.00,,,0.00,WUHU216HW,2013-01-21 12:53:00,
2013-01-21 07:58:00,27.9,13.0,30.06,NNE,23,0.0,0.0,53,0.00,,,0.00,WUHU216HW,2013-01-21 12:58:00,
2013-01-21 08:03:00,27.9,13.0,30.06,NNE,23,0.0,0.0,53,0.00,,,0.00,WUHU216HW,2013-01-21 13:03:00,
2013-01-21 08:08:00,28.1,13.2,30.07,NNE,23,0.0,0.2,53,0.00,,,0.00,WUHU216HW,2013-01-21 13:08:00,
2013-01-21 08:13:00,28.1,13.2,30.06,NE,45,0.2,0.4,53,0.00,,,0.00,WUHU216HW,2013-01-21 13:13:00,
2013-01-21 08:18:00,28.3,13.7,30.06,NE,45,0.0,0.4,54,0.00,,,0.00,WUHU216HW,2013-01-21 13:18:00,
2013-01-21 08:23:00,28.4,13.5,30.06,NE,45,0.0,0.4,53,0.00,,,0.00,WUHU216HW,2013-01-21 13:23:00,
2013-01-21 08:28:00,28.4,13.5,30.06,NE,45,0.0,0.4,53,0.00,,,0.00,WUHU216HW,2013-01-21 13:28:00,
2013-01-21 08:33:00,28.8,13.8,30.06,NE,45,0.0,0.4,53,0.00,,,0.00,WUHU216HW,2013-01-21 13:33:00,
2013-01-21 08:38:00,29.0,14.0,30.07,NE,45,0.0,0.4,53,0.00,,,0.00,WUHU216HW,2013-01-21 13:38:00,
2013-01-21 08:43:00,29.2,13.7,30.07,NE,45,0.0,0.0,52,0.00,,,0.00,WUHU216HW,2013-01-21 13:43:00,
2013-01-21 08:48:00,29.3,13.9,30.07,NE,45,0.0,0.4,52,0.00,,,0.00,WUHU216HW,2013-01-21 13:48:00,
2013-01-21 08:53:00,29.3,13.9,30.07,NE,45,0.0,0.4,52,0.00,,,0.00,WUHU216HW,2013-01-21 13:53:00,
2013-01-21 08:58:00,29.5,14.0,30.07,NE,45,0.0,0.4,52,0.00,,,0.00,WUHU216HW,2013-01-21 13:58:00,
2013-01-21 09:03:00,29.7,14.2,30.07,NE,45,0.0,0.4,52,0.00,,,0.00,WUHU216HW,2013-01-21 14:03:00,
2013-01-21 09:08:00,29.9,14.0,30.07,NE,45,0.0,1.1,51,0.00,,,0.00,WUHU216HW,2013-01-21 14:08:00,
2013-01-21 09:13:00,29.9,14.0,30.07,NE,45,0.4,1.1,51,0.00,,,0.00,WUHU216HW,2013-01-21 14:13:00,
2013-01-21 09:18:00,29.9,14.0,30.07,North,0,0.0,0.4,51,0.00,,,0.00,WUHU216HW,2013-01-21 14:18:00,
2013-01-21 09:23:00,30.1,14.1,30.08,North,0,1.1,1.6,51,0.00,,,0.00,WUHU216HW,2013-01-21 14:23:00,
2013-01-21 09:28:00,30.2,14.3,30.08,SSW,203,0.2,1.6,51,0.00,,,0.00,WUHU216HW,2013-01-21 14:28:00,
2013-01-21 09:33:00,30.4,14.4,30.08,NNW,338,0.0,1.6,51,0.00,,,0.00,WUHU216HW,2013-01-21 14:33:00,
2013-01-21 09:38:00,30.4,14.4,30.08,SSW,203,0.4,1.1,51,0.00,,,0.00,WUHU216HW,2013-01-21 14:38:00,
2013-01-21 09:43:00,30.6,14.6,30.08,NNW,338,0.0,1.1,51,0.00,,,0.00,WUHU216HW,2013-01-21 14:43:00,
2013-01-21 09:48:00,30.6,14.2,30.08,SSW,203,0.4,1.8,50,0.00,,,0.00,WUHU216HW,2013-01-21 14:48:00,
2013-01-21 09:53:00,30.8,14.3,30.07,SW,225,0.0,1.8,50,0.00,,,0.00,WUHU216HW,2013-01-21 14:53:00,
2013-01-21 09:58:00,30.8,14.8,30.07,SW,225,0.0,1.6,51,0.00,,,0.00,WUHU216HW,2013-01-21 14:58:00,
2013-01-21 10:03:00,31.0,14.5,30.07,SE,135,0.0,0.0,50,0.00,,,0.00,WUHU216HW,2013-01-21 15:03:00,
2013-01-21 10:08:00,31.0,14.5,30.07,SE,135,0.0,0.0,50,0.00,,,0.00,WUHU216HW,2013-01-21 15:08:00,
2013-01-21 11:00:00,32.0,14.9,30.04,SSE,158,0.4,0.4,49,0.00,,,0.00,WUHU216HW,2013-01-21 16:00:00,
2013-01-21 11:05:00,32.4,15.3,30.03,SW,225,1.6,2.5,49,0.00,,,0.00,WUHU216HW,2013-01-21 16:05:00,
2013-01-21 11:10:00,32.6,15.5,30.03,East,90,0.4,2.5,49,0.00,,,0.00,WUHU216HW,2013-01-21 16:10:00,
2013-01-21 11:15:00,32.6,15.5,30.03,ESE,113,0.2,2.5,49,0.00,,,0.00,WUHU216HW,2013-01-21 16:15:00,
2013-01-21 11:20:00,32.8,15.7,30.02,SSW,203,0.4,1.6,49,0.00,,,0.00,WUHU216HW,2013-01-21 16:20:00,
2013-01-21 11:25:00,32.8,15.7,30.01,SW,225,4.0,4.0,49,0.00,,,0.00,WUHU216HW,2013-01-21 16:25:00,
2013-01-21 11:30:00,32.9,15.8,30.02,WSW,248,0.4,4.0,49,0.00,,,0.00,WUHU216HW,2013-01-21 16:30:00,
2013-01-21 11:35:00,33.1,15.9,30.01,SW,225,1.6,4.0,49,0.00,,,0.00,WUHU216HW,2013-01-21 16:35:00,
2013-01-21 11:40:00,33.5,16.7,30.01,SSW,203,2.0,2.5,50,0.00,,,0.00,WUHU216HW,2013-01-21 16:40:00,
2013-01-21 11:45:00,33.5,16.3,30.00,NE,45,0.4,3.4,49,0.00,,,0.00,WUHU216HW,2013-01-21 16:45:00,
2013-01-21 11:50:00,33.5,16.3,30.00,SSW,203,1.1,4.0,49,0.00,,,0.00,WUHU216HW,2013-01-21 16:50:00,
2013-01-21 11:55:00,33.7,16.5,30.00,WSW,248,0.0,4.0,49,0.00,,,0.00,WUHU216HW,2013-01-21 16:55:00,
2013-01-21 12:00:00,34.0,17.3,29.99,South,180,1.6,3.4,50,0.00,,,0.00,WUHU216HW,2013-01-21 17:00:00,
2013-01-21 12:05:00,34.0,17.3,29.99,SW,225,0.4,3.4,50,0.00,,,0.00,WUHU216HW,2013-01-21 17:05:00,
2013-01-21 12:10:00,34.2,17.5,29.98,SW,225,1.3,3.4,50,0.00,,,0.00,WUHU216HW,2013-01-21 17:10:00,
2013-01-21 12:15:00,34.2,17.5,29.98,SW,225,1.6,3.6,50,0.00,,,0.00,WUHU216HW,2013-01-21 17:15:00,
2013-01-21 12:20:00,34.2,17.5,29.98,SSW,203,2.9,3.6,50,0.00,,,0.00,WUHU216HW,2013-01-21 17:20:00,
2013-01-21 12:25:00,34.2,17.5,29.97,SSW,203,1.8,3.8,50,0.00,,,0.00,WUHU216HW,2013-01-21 17:25:00,
2013-01-21 12:30:00,34.2,17.5,29.97,SSE,158,1.6,3.8,50,0.00,,,0.00,WUHU216HW,2013-01-21 17:30:00,
2013-01-21 12:35:00,34.0,17.3,29.97,SSW,203,1.1,3.1,50,0.00,,,0.00,WUHU216HW,2013-01-21 17:35:00,
2013-01-21 12:40:00,34.2,17.9,29.96,SW,225,1.8,2.5,51,0.00,,,0.00,WUHU216HW,2013-01-21 17:40:00,
2013-01-21 12:45:00,34.0,17.7,29.96,SW,225,0.0,3.8,51,0.00,,,0.00,WUHU216HW,2013-01-21 17:45:00,
2013-01-21 12:50:00,33.8,17.6,29.96,South,180,0.4,3.8,51,0.00,,,0.00,WUHU216HW,2013-01-21 17:50:00,
2013-01-21 12:55:00,33.8,17.6,29.95,SE,135,2.5,3.4,51,0.00,,,0.00,WUHU216HW,2013-01-21 17:55:00,
2013-01-21 13:00:00,33.7,17.4,29.95,SSW,203,1.1,4.0,51,0.00,,,0.00,WUHU216HW,2013-01-21 18:00:00,
2013-01-21 13:05:00,33.8,17.6,29.95,SSE,158,1.8,4.0,51,0.00,,,0.00,WUHU216HW,2013-01-21 18:05:00,
2013-01-21 13:10:00,33.8,18.0,29.95,SE,135,0.4,2.9,52,0.00,,,0.00,WUHU216HW,2013-01-21 18:10:00,
2013-01-21 13:15:00,33.8,18.0,29.94,SW,225,1.8,2.9,52,0.00,,,0.00,WUHU216HW,2013-01-21 18:15:00,
2013-01-21 13:20:00,33.8,18.0,29.94,SSW,203,3.6,3.6,52,0.00,,,0.00,WUHU216HW,2013-01-21 18:20:00,
2013-01-21 13:25:00,33.8,18.0,29.94,SSW,203,2.2,4.3,52,0.00,,,0.00,WUHU216HW,2013-01-21 18:25:00,
2013-01-21 13:30:00,33.8,18.0,29.94,SW,225,1.6,4.3,52,0.00,,,0.00,WUHU216HW,2013-01-21 18:30:00,
2013-01-21 13:35:00,33.8,18.4,29.94,SW,225,2.0,3.1,53,0.00,,,0.00,WUHU216HW,2013-01-21 18:35:00,
2013-01-21 13:40:00,33.8,18.0,29.94,SSE,158,0.9,2.9,52,0.00,,,0.00,WUHU216HW,2013-01-21 18:40:00,
2013-01-21 13:45:00,33.7,17.8,29.94,SW,225,1.1,3.1,52,0.00,,,0.00,WUHU216HW,2013-01-21 18:45:00,
2013-01-21 13:50:00,33.8,18.0,29.94,South,180,1.6,3.8,52,0.00,,,0.00,WUHU216HW,2013-01-21 18:50:00,
2013-01-21 13:55:00,33.8,17.6,29.94,SSW,203,1.1,3.8,51,0.00,,,0.00,WUHU216HW,2013-01-21 18:55:00,
2013-01-21 14:00:00,33.8,17.6,29.94,South,180,3.1,3.4,51,0.00,,,0.00,WUHU216HW,2013-01-21 19:00:00,
2013-01-21 14:05:00,34.0,17.7,29.94,SE,135,0.4,3.1,51,0.00,,,0.00,WUHU216HW,2013-01-21 19:05:00,
2013-01-21 14:10:00,34.2,17.9,29.93,SSW,203,2.5,3.8,51,0.00,,,0.00,WUHU216HW,2013-01-21 19:10:00,
2013-01-21 14:15:00,34.2,17.5,29.93,SSW,203,0.9,3.8,50,0.00,,,0.00,WUHU216HW,2013-01-21 19:15:00,
2013-01-21 14:20:00,34.2,17.5,29.93,South,180,0.7,3.1,50,0.00,,,0.00,WUHU216HW,2013-01-21 19:20:00,
2013-01-21 14:25:00,34.4,17.6,29.93,South,180,0.7,4.0,50,0.00,,,0.00,WUHU216HW,2013-01-21 19:25:00,
2013-01-21 14:30:00,34.4,17.6,29.93,South,180,0.4,4.0,50,0.00,,,0.00,WUHU216HW,2013-01-21 19:30:00,
2013-01-21 14:35:00,34.4,17.6,29.92,South,180,1.1,2.9,50,0.00,,,0.00,WUHU216HW,2013-01-21 19:35:00,
2013-01-21 14:40:00,34.4,17.1,29.92,South,180,2.5,2.5,49,0.00,,,0.00,WUHU216HW,2013-01-21 19:40:00,
2013-01-21 14:45:00,34.4,17.1,29.92,SSW,203,2.2,3.4,49,0.00,,,0.00,WUHU216HW,2013-01-21 19:45:00,
2013-01-21 14:50:00,34.2,15.9,29.92,West,270,4.0,5.8,47,0.00,,,0.00,WUHU216HW,2013-01-21 19:50:00,
2013-01-21 14:55:00,34.2,16.9,29.92,South,180,1.1,5.8,49,0.00,,,0.00,WUHU216HW,2013-01-21 19:55:00,
2013-01-21 15:00:00,34.0,16.7,29.91,South,180,2.2,4.0,49,0.00,,,0.00,WUHU216HW,2013-01-21 20:00:00,
2013-01-21 15:05:00,34.0,16.3,29.91,SSE,158,0.7,3.8,48,0.00,,,0.00,WUHU216HW,2013-01-21 20:05:00,
2013-01-21 15:10:00,33.8,16.1,29.91,SSW,203,1.6,3.8,48,0.00,,,0.00,WUHU216HW,2013-01-21 20:10:00,
2013-01-21 15:15:00,33.8,16.6,29.91,SSW,203,1.1,2.7,49,0.00,,,0.00,WUHU216HW,2013-01-21 20:15:00,
2013-01-21 15:20:00,33.8,16.6,29.91,SSW,203,0.0,3.4,49,0.00,,,0.00,WUHU216HW,2013-01-21 20:20:00,
2013-01-21 15:25:00,33.8,16.6,29.91,WSW,248,0.4,3.4,49,0.00,,,0.00,WUHU216HW,2013-01-21 20:25:00,
2013-01-21 15:30:00,33.8,16.6,29.90,SW,225,0.9,5.1,49,0.00,,,0.00,WUHU216HW,2013-01-21 20:30:00,
2013-01-21 15:35:00,33.8,16.6,29.90,SSW,203,1.1,5.1,49,0.00,,,0.00,WUHU216HW,2013-01-21 20:35:00,
2013-01-21 15:40:00,33.7,16.5,29.89,SE,135,1.1,2.5,49,0.00,,,0.00,WUHU216HW,2013-01-21 20:40:00,
2013-01-21 15:45:00,33.7,16.5,29.89,SW,225,0.7,2.0,49,0.00,,,0.00,WUHU216HW,2013-01-21 20:45:00,
2013-01-21 15:50:00,33.7,16.5,29.89,WSW,248,1.1,3.6,49,0.00,,,0.00,WUHU216HW,2013-01-21 20:50:00,
2013-01-21 15:55:00,33.5,16.3,29.88,WSW,248,1.1,3.6,49,0.00,,,0.00,WUHU216HW,2013-01-21 20:55:00,
2013-01-21 16:00:00,33.5,16.7,29.88,SW,225,2.5,3.1,50,0.00,,,0.00,WUHU216HW,2013-01-21 21:00:00,
2013-01-21 16:05:00,33.5,16.7,29.88,WSW,248,2.2,2.5,50,0.00,,,0.00,WUHU216HW,2013-01-21 21:05:00,
2013-01-21 16:10:00,33.5,16.7,29.88,SW,225,0.4,3.4,50,0.00,,,0.00,WUHU216HW,2013-01-21 21:10:00,
2013-01-21 16:15:00,33.3,17.0,29.88,WNW,293,2.2,3.4,51,0.00,,,0.00,WUHU216HW,2013-01-21 21:15:00,
2013-01-21 16:20:00,33.1,17.3,29.88,WSW,248,2.5,3.4,52,0.00,,,0.00,WUHU216HW,2013-01-21 21:20:00,
2013-01-21 16:25:00,33.1,16.9,29.87,South,180,1.6,4.7,51,0.00,,,0.00,WUHU216HW,2013-01-21 21:25:00,
2013-01-21 16:30:00,32.9,17.2,29.87,SSE,158,0.0,4.7,52,0.00,,,0.00,WUHU216HW,2013-01-21 21:30:00,
2013-01-21 16:35:00,32.8,17.0,29.87,WNW,293,0.0,1.8,52,0.00,,,0.00,WUHU216HW,2013-01-21 21:35:00,
2013-01-21 16:40:00,32.9,17.6,29.87,SW,225,1.1,2.0,53,0.00,,,0.00,WUHU216HW,2013-01-21 21:40:00,
2013-01-21 16:45:00,32.9,17.6,29.87,South,180,0.0,2.0,53,0.00,,,0.00,WUHU216HW,2013-01-21 21:45:00,
2013-01-21 16:50:00,32.9,18.5,29.87,SSW,203,0.4,1.8,55,0.00,,,0.00,WUHU216HW,2013-01-21 21:50:00,
2013-01-21 16:55:00,32.8,18.7,29.87,SSW,203,0.0,2.0,56,0.00,,,0.00,WUHU216HW,2013-01-21 21:55:00,
2013-01-21 17:00:00,32.8,18.7,29.87,SSW,203,1.8,2.2,56,0.00,,,0.00,WUHU216HW,2013-01-21 22:00:00,
2013-01-21 17:05:00,32.6,19.0,29.87,SE,135,1.8,2.7,57,0.00,,,0.00,WUHU216HW,2013-01-21 22:05:00,
2013-01-21 17:10:00,32.6,19.0,29.87,SSE,158,0.2,2.7,57,0.00,,,0.00,WUHU216HW,2013-01-21 22:10:00,
2013-01-21 17:15:00,32.6,19.5,29.86,SSE,158,0.4,1.8,58,0.00,,,0.00,WUHU216HW,2013-01-21 22:15:00,
2013-01-21 17:20:00,32.6,19.5,29.86,SE,135,0.9,1.8,58,0.00,,,0.00,WUHU216HW,2013-01-21 22:20:00,
2013-01-21 17:25:00,32.6,19.5,29.87,SSW,203,0.4,1.6,58,0.00,,,0.00,WUHU216HW,2013-01-21 22:25:00,
2013-01-21 17:30:00,32.4,19.7,29.87,SSE,158,0.0,1.6,59,0.00,,,0.00,WUHU216HW,2013-01-21 22:30:00,
2013-01-21 17:35:00,32.4,19.7,29.87,SW,225,0.0,0.7,59,0.00,,,0.00,WUHU216HW,2013-01-21 22:35:00,
2013-01-21 17:40:00,32.4,20.2,29.87,SSE,158,0.2,1.6,60,0.00,,,0.00,WUHU216HW,2013-01-21 22:40:00,
2013-01-21 17:45:00,32.4,20.2,29.87,SE,135,0.4,1.6,60,0.00,,,0.00,WUHU216HW,2013-01-21 22:45:00,
2013-01-21 17:50:00,32.4,20.5,29.87,SSW,203,0.0,1.3,61,0.00,,,0.00,WUHU216HW,2013-01-21 22:50:00,
2013-01-21 17:55:00,32.4,20.5,29.87,South,180,0.0,1.8,61,0.00,,,0.00,WUHU216HW,2013-01-21 22:55:00,
2013-01-21 18:00:00,32.4,20.5,29.87,SSE,158,0.0,1.8,61,0.00,,,0.00,WUHU216HW,2013-01-21 23:00:00,
2013-01-21 18:05:00,32.4,20.5,29.87,SSW,203,0.0,1.3,61,0.00,,,0.00,WUHU216HW,2013-01-21 23:05:00,
2013-01-21 18:10:00,32.4,20.5,29.87,SSE,158,0.2,1.3,61,0.00,,,0.00,WUHU216HW,2013-01-21 23:10:00,
2013-01-21 18:15:00,32.4,20.9,29.87,NNW,338,0.2,0.7,62,0.00,,,0.00,WUHU216HW,2013-01-21 23:15:00,
2013-01-21 18:20:00,32.4,20.9,29.87,SSW,203,0.0,2.0,62,0.00,,,0.00,WUHU216HW,2013-01-21 23:20:00,
2013-01-21 18:25:00,32.4,20.9,29.87,NNW,338,0.0,2.0,62,0.00,,,0.00,WUHU216HW,2013-01-21 23:25:00,
2013-01-21 18:30:00,32.4,20.9,29.86,NNW,338,1.1,1.6,62,0.00,,,0.00,WUHU216HW,2013-01-21 23:30:00,
2013-01-21 18:35:00,32.4,20.9,29.86,NNW,338,0.2,1.6,62,0.00,,,0.00,WUHU216HW,2013-01-21 23:35:00,
2013-01-21 18:40:00,32.4,20.9,29.85,West,270,0.0,1.1,62,0.00,,,0.00,WUHU216HW,2013-01-21 23:40:00,
2013-01-21 18:45:00,32.6,21.0,29.85,North,0,0.2,0.4,62,0.00,,,0.00,WUHU216HW,2013-01-21 23:45:00,
2013-01-21 18:50:00,32.6,21.0,29.85,North,0,0.2,0.7,62,0.00,,,0.00,WUHU216HW,2013-01-21 23:50:00,
2013-01-21 18:55:00,32.6,21.0,29.84,West,270,0.0,0.7,62,0.00,,,0.00,WUHU216HW,2013-01-21 23:55:00,
2013-01-21 19:00:00,32.6,21.0,29.84,WNW,293,1.1,1.1,62,0.00,,,0.00,WUHU216HW,2013-01-22 00:00:00,
2013-01-21 19:05:00,32.6,21.0,29.83,North,0,0.0,1.3,62,0.00,,,0.00,WUHU216HW,2013-01-22 00:05:00,
2013-01-21 19:10:00,32.8,21.2,29.83,North,0,0.2,1.3,62,0.00,,,0.00,WUHU216HW,2013-01-22 00:10:00,
2013-01-21 19:15:00,32.8,21.2,29.83,NNW,338,0.4,1.3,62,0.00,,,0.00,WUHU216HW,2013-01-22 00:15:00,
2013-01-21 19:20:00,32.8,21.2,29.83,NW,315,0.0,1.3,62,0.00,,,0.00,WUHU216HW,2013-01-22 00:20:00,
2013-01-21 19:25:00,32.8,21.2,29.84,West,270,0.0,1.6,62,0.00,,,0.00,WUHU216HW,2013-01-22 00:25:00,
2013-01-21 19:30:00,32.8,21.2,29.84,NNW,338,1.3,1.6,62,0.00,,,0.00,WUHU216HW,2013-01-22 00:30:00,
2013-01-21 19:35:00,32.8,21.2,29.84,NW,315,0.0,1.6,62,0.00,,,0.00,WUHU216HW,2013-01-22 00:35:00,
2013-01-21 19:40:00,32.8,21.2,29.84,North,0,0.2,1.6,62,0.00,,,0.00,WUHU216HW,2013-01-22 00:40:00,
2013-01-21 19:45:00,32.6,21.3,29.84,ENE,68,0.7,0.7,63,0.00,,,0.00,WUHU216HW,2013-01-22 00:45:00,
2013-01-21 19:50:00,32.2,21.4,29.84,WSW,248,0.9,0.9,64,0.00,,,0.00,WUHU216HW,2013-01-22 00:50:00,
2013-01-21 19:55:00,32.0,21.6,29.85,NW,315,0.0,1.8,65,0.00,,,0.00,WUHU216HW,2013-01-22 00:55:00,
2013-01-21 20:00:00,31.9,21.8,29.84,NE,45,0.0,1.8,66,0.00,,,0.00,WUHU216HW,2013-01-22 01:00:00,
2013-01-21 20:05:00,31.9,21.8,29.85,SE,135,0.4,0.7,66,0.00,,,0.00,WUHU216HW,2013-01-22 01:05:00,
2013-01-21 20:10:00,31.7,21.6,29.84,North,0,0.2,0.7,66,0.00,,,0.00,WUHU216HW,2013-01-22 01:10:00,
2013-01-21 20:15:00,31.5,22.5,29.83,NW,315,1.3,2.5,69,0.00,,,0.00,WUHU216HW,2013-01-22 01:15:00,
2013-01-21 20:20:00,31.3,22.0,29.84,West,270,0.2,2.5,68,0.00,,,0.00,WUHU216HW,2013-01-22 01:20:00,
2013-01-21 20:25:00,31.3,22.7,29.84,SSW,203,0.4,1.3,70,0.00,,,0.00,WUHU216HW,2013-01-22 01:25:00,
2013-01-21 20:30:00,31.3,23.1,29.85,NNW,338,0.4,1.8,71,0.00,,,0.00,WUHU216HW,2013-01-22 01:30:00,
2013-01-21 20:35:00,31.0,23.3,29.84,West,270,0.0,1.8,73,0.00,,,0.00,WUHU216HW,2013-01-22 01:35:00,
2013-01-21 20:40:00,30.8,22.8,29.84,NNW,338,0.7,1.8,72,0.00,,,0.00,WUHU216HW,2013-01-22 01:40:00,
2013-01-21 20:45:00,30.6,22.6,29.84,WSW,248,0.7,1.8,72,0.00,,,0.00,WUHU216HW,2013-01-22 01:45:00,
2013-01-21 20:50:00,30.6,22.6,29.85,NNW,338,0.9,2.2,72,0.00,,,0.00,WUHU216HW,2013-01-22 01:50:00,
2013-01-21 20:55:00,30.6,23.2,29.84,NNE,23,1.8,3.6,74,0.00,,,0.00,WUHU216HW,2013-01-22 01:55:00,
2013-01-21 21:00:00,30.6,23.0,29.85,ENE,68,2.0,4.9,73,0.00,,,0.00,WUHU216HW,2013-01-22 02:00:00,
2013-01-21 21:05:00,30.6,22.3,29.85,SW,225,2.2,5.8,71,0.00,,,0.00,WUHU216HW,2013-01-22 02:05:00,
2013-01-21 21:10:00,30.4,21.8,29.85,NNW,338,3.4,5.8,70,0.00,,,0.00,WUHU216HW,2013-01-22 02:10:00,
2013-01-21 21:15:00,30.4,21.8,29.85,NNW,338,1.8,4.5,70,0.00,,,0.00,WUHU216HW,2013-01-22 02:15:00,
2013-01-21 21:20:00,30.4,21.8,29.85,NW,315,2.5,4.5,70,0.00,,,0.00,WUHU216HW,2013-01-22 02:20:00,
2013-01-21 21:25:00,30.4,21.8,29.84,WSW,248,5.1,5.1,70,0.00,,,0.00,WUHU216HW,2013-01-22 02:25:00,
2013-01-21 21:30:00,30.2,21.6,29.83,North,0,1.1,5.1,70,0.00,,,0.00,WUHU216HW,2013-01-22 02:30:00,
2013-01-21 21:35:00,30.2,21.6,29.83,NNW,338,1.1,4.0,70,0.00,,,0.00,WUHU216HW,2013-01-22 02:35:00,
2013-01-21 21:40:00,30.2,21.6,29.82,NW,315,1.8,2.9,70,0.00,,,0.00,WUHU216HW,2013-01-22 02:40:00,
2013-01-21 21:45:00,30.2,21.6,29.82,SSW,203,0.4,2.9,70,0.00,,,0.00,WUHU216HW,2013-01-22 02:45:00,
2013-01-21 21:50:00,30.4,21.8,29.83,WSW,248,2.7,2.7,70,0.00,,,0.00,WUHU216HW,2013-01-22 02:50:00,
2013-01-21 21:55:00,30.4,21.4,29.82,NNW,338,2.0,2.7,69,0.00,,,0.00,WUHU216HW,2013-01-22 02:55:00,
2013-01-21 22:00:00,30.4,21.1,29.82,WSW,248,1.8,3.4,68,0.00,,,0.00,WUHU216HW,2013-01-22 03:00:00,
2013-01-21 22:05:00,30.6,20.9,29.82,ESE,113,0.4,7.6,67,0.00,,,0.00,WUHU216HW,2013-01-22 03:05:00,
2013-01-21 22:10:00,30.6,20.9,29.82,NW,315,1.1,7.6,67,0.00,,,0.00,WUHU216HW,2013-01-22 03:10:00,
2013-01-21 22:15:00,30.6,20.5,29.82,NE,45,2.5,5.4,66,0.00,,,0.00,WUHU216HW,2013-01-22 03:15:00,
2013-01-21 22:20:00,30.8,20.7,29.81,South,180,1.6,4.0,66,0.00,,,0.00,WUHU216HW,2013-01-22 03:20:00,
2013-01-21 22:25:00,30.8,20.7,29.81,North,0,1.1,4.0,66,0.00,,,0.00,WUHU216HW,2013-01-22 03:25:00,
2013-01-21 22:30:00,30.8,20.7,29.81,NNW,338,0.9,4.0,66,0.00,,,0.00,WUHU216HW,2013-01-22 03:30:00,
2013-01-21 22:35:00,30.6,20.2,29.81,WNW,293,1.1,3.4,65,0.00,,,0.00,WUHU216HW,2013-01-22 03:35:00,
2013-01-21 22:40:00,30.6,20.2,29.81,North,0,4.0,6.0,65,0.00,,,0.00,WUHU216HW,2013-01-22 03:40:00,
2013-01-21 22:45:00,30.6,20.2,29.80,North,0,2.5,6.0,65,0.00,,,0.00,WUHU216HW,2013-01-22 03:45:00,
2013-01-21 22:50:00,30.6,19.8,29.80,NNW,338,2.0,5.4,64,0.00,,,0.00,WUHU216HW,2013-01-22 03:50:00,
2013-01-21 22:55:00,30.6,20.2,29.80,West,270,2.0,4.0,65,0.00,,,0.00,WUHU216HW,2013-01-22 03:55:00,
2013-01-21 23:00:00,30.6,20.2,29.80,WNW,293,1.3,4.3,65,0.00,,,0.00,WUHU216HW,2013-01-22 04:00:00,
2013-01-21 23:05:00,30.4,19.6,29.80,West,270,2.7,5.1,64,0.00,,,0.00,WUHU216HW,2013-01-22 04:05:00,
2013-01-21 23:10:00,30.4,19.6,29.81,WSW,248,1.3,5.1,64,0.00,,,0.00,WUHU216HW,2013-01-22 04:10:00,
2013-01-21 23:15:00,30.2,19.8,29.81,SSW,203,3.4,4.5,65,0.00,,,0.00,WUHU216HW,2013-01-22 04:15:00,
2013-01-21 23:20:00,30.2,19.8,29.81,NW,315,1.8,4.0,65,0.00,,,0.00,WUHU216HW,2013-01-22 04:20:00,
2013-01-21 23:25:00,30.1,19.6,29.80,SW,225,3.8,5.6,65,0.00,,,0.00,WUHU216HW,2013-01-22 04:25:00,
2013-01-21 23:30:00,30.1,19.6,29.80,NNE,23,1.1,5.6,65,0.00,,,0.00,WUHU216HW,2013-01-22 04:30:00,
2013-01-21 23:35:00,29.9,19.4,29.80,North,0,1.8,6.0,65,0.00,,,0.00,WUHU216HW,2013-01-22 04:35:00,
2013-01-21 23:40:00,29.9,19.4,29.81,NW,315,1.8,6.0,65,0.00,,,0.00,WUHU216HW,2013-01-22 04:40:00,
2013-01-21 23:45:00,29.7,19.4,29.80,West,270,2.2,5.4,65,0.00,,,0.00,WUHU216HW,2013-01-22 04:45:00,
2013-01-21 23:50:00,29.7,19.4,29.80,NW,315,1.3,5.4,65,0.00,,,0.00,WUHU216HW,2013-01-22 04:50:00,
2013-01-21 23:55:00,29.5,19.2,29.80,North,0,4.0,4.0,65,0.00,,,0.00,WUHU216HW,2013-01-22 04:55:00,